| time (UTC) | temp F | wind direction | speed MPH | gust MPH | rain 1hr in | rain 24hr in | rain mn in | humidity % | barometer mb |
| 20260508231104 | 57 | 180 | 10.0 | 12.0 | 0.00 | 0.07 | 0.07 | 83 | 1009.1 |
| 20260508230600 | 57 | 194 | 6.0 | 14.0 | 0.00 | 0.07 | 0.07 | 83 | 1009.2 |
| 20260508230057 | 58 | 217 | 6.0 | 18.0 | 0.00 | 0.07 | 0.07 | 81 | 1009.2 |
| 20260508225555 | 58 | 181 | 6.0 | 13.0 | 0.00 | 0.07 | 0.07 | 83 | 1009.3 |
| 20260508225051 | 57 | 221 | 11.0 | 13.0 | 0.00 | 0.07 | 0.07 | 83 | 1009.2 |
| 20260508224549 | 57 | 217 | 7.0 | 14.0 | 0.00 | 0.07 | 0.07 | 82 | 1009.2 |
| 20260508224046 | 57 | 223 | 11.0 | 15.0 | 0.00 | 0.07 | 0.07 | 82 | 1009.1 |
| 20260508223544 | 57 | 208 | 8.0 | 13.0 | 0.00 | 0.07 | 0.07 | 82 | 1009.3 |
| 20260508223041 | 57 | 199 | 10.0 | 12.0 | 0.00 | 0.07 | 0.07 | 82 | 1009.2 |
| 20260508222538 | 57 | 184 | 8.0 | 13.0 | 0.00 | 0.07 | 0.07 | 81 | 1009.2 |
| 20260508222035 | 57 | 193 | 6.0 | 9.0 | 0.00 | 0.07 | 0.07 | 81 | 1009.3 |
| 20260508221531 | 57 | 222 | 8.0 | 14.0 | 0.00 | 0.07 | 0.07 | 80 | 1009.3 |
| 20260508221027 | 57 | 189 | 7.0 | 12.0 | 0.00 | 0.07 | 0.07 | 81 | 1009.4 |
| 20260508220524 | 57 | 192 | 6.0 | 13.0 | 0.00 | 0.07 | 0.07 | 81 | 1009.3 |
| 20260508220020 | 57 | 210 | 14.0 | 16.0 | 0.00 | 0.07 | 0.07 | 80 | 1009.3 |
| 20260508215517 | 57 | 205 | 9.0 | 16.0 | 0.00 | 0.07 | 0.07 | 82 | 1009.2 |
| 20260508215014 | 57 | 197 | 11.0 | 14.0 | 0.00 | 0.07 | 0.07 | 82 | 1009.5 |
| 20260508214512 | 56 | 211 | 11.0 | 14.0 | 0.00 | 0.07 | 0.07 | 82 | 1009.2 |
| 20260508214008 | 56 | 205 | 11.0 | 14.0 | 0.00 | 0.07 | 0.07 | 83 | 1009.3 |
| 20260508213505 | 56 | 193 | 7.0 | 12.0 | 0.00 | 0.07 | 0.07 | 84 | 1009.4 |
| 20260508213000 | 56 | 196 | 12.0 | 15.0 | 0.00 | 0.07 | 0.07 | 83 | 1009.1 |
| 20260508212457 | 56 | 176 | 8.0 | 15.0 | 0.00 | 0.07 | 0.07 | 83 | 1009.5 |
| 20260508211953 | 56 | 187 | 10.0 | 17.0 | 0.00 | 0.07 | 0.07 | 82 | 1009.4 |
| 20260508211449 | 56 | 198 | 7.0 | 15.0 | 0.00 | 0.07 | 0.07 | 83 | 1009.5 |
| 20260508210946 | 56 | 209 | 11.0 | 15.0 | 0.00 | 0.07 | 0.07 | 83 | 1009.6 |
| 20260508210443 | 56 | 215 | 13.0 | 17.0 | 0.00 | 0.07 | 0.07 | 83 | 1009.7 |
| 20260508205939 | 55 | 219 | 9.0 | 19.0 | 0.00 | 0.07 | 0.07 | 84 | 1009.5 |
| 20260508205436 | 55 | 196 | 4.0 | 9.0 | 0.02 | 0.07 | 0.07 | 85 | 1009.8 |
| 20260508204932 | 56 | 222 | 9.0 | 14.0 | 0.02 | 0.07 | 0.07 | 82 | 1009.9 |
| 20260508204430 | 56 | 214 | 8.0 | 16.0 | 0.02 | 0.06 | 0.06 | 82 | 1009.7 |
| 20260508203925 | 56 | 159 | 8.0 | 14.0 | 0.02 | 0.06 | 0.06 | 81 | 1009.7 |
| 20260508203422 | 57 | 165 | 9.0 | 10.0 | 0.02 | 0.06 | 0.06 | 79 | 1009.9 |
| 20260508202918 | 58 | 155 | 9.0 | 10.0 | 0.02 | 0.06 | 0.06 | 78 | 1009.7 |
| 20260508202415 | 58 | 148 | 7.0 | 11.0 | 0.05 | 0.06 | 0.06 | 75 | 1009.8 |
| 20260508201912 | 59 | 154 | 4.0 | 5.0 | 0.05 | 0.06 | 0.06 | 74 | 1009.9 |
| 20260508201409 | 59 | 199 | 4.0 | 5.0 | 0.00 | 0.05 | 0.05 | 70 | 1009.9 |
| 20260508200905 | 59 | 199 | 3.0 | 3.0 | 0.00 | 0.05 | 0.05 | 70 | 1010.0 |
| 20260508200402 | 60 | 198 | 2.0 | 3.0 | 0.00 | 0.05 | 0.05 | 71 | 1010.2 |
| 20260508195858 | 59 | 184 | 2.0 | 3.0 | 0.00 | 0.05 | 0.05 | 72 | 1010.2 |
| 20260508195355 | 59 | 357 | 2.0 | 4.0 | 0.00 | 0.05 | 0.05 | 71 | 1010.3 |
| 20260508194851 | 59 | 34 | 2.0 | 4.0 | 0.00 | 0.05 | 0.05 | 71 | 1010.4 |
| 20260508194348 | 59 | 334 | 2.0 | 3.0 | 0.00 | 0.05 | 0.05 | 70 | 1010.3 |
| 20260508193845 | 59 | 55 | 2.0 | 3.0 | 0.00 | 0.05 | 0.05 | 70 | 1010.4 |
| 20260508193342 | 59 | 299 | 0.0 | 3.0 | 0.00 | 0.05 | 0.05 | 71 | 1010.4 |
| 20260508192838 | 59 | 36 | 3.0 | 5.0 | 0.00 | 0.05 | 0.05 | 72 | 1010.5 |
| 20260508192335 | 59 | 7 | 2.0 | 3.0 | 0.00 | 0.05 | 0.05 | 71 | 1010.7 |
| 20260508191832 | 59 | 115 | 2.0 | 3.0 | 0.00 | 0.05 | 0.05 | 71 | 1010.6 |
| 20260508191330 | 59 | 55 | 2.0 | 2.0 | 0.00 | 0.05 | 0.05 | 71 | 1010.4 |
| 20260508190827 | 58 | 179 | 3.0 | 4.0 | 0.00 | 0.05 | 0.05 | 72 | 1010.5 |
| 20260508190323 | 58 | 142 | 5.0 | 5.0 | 0.00 | 0.05 | 0.05 | 70 | 1010.7 |
| 20260508185819 | 58 | 167 | 4.0 | 6.0 | 0.00 | 0.05 | 0.05 | 71 | 1010.7 |
| 20260508185317 | 59 | 171 | 6.0 | 8.0 | 0.00 | 0.05 | 0.05 | 69 | 1010.9 |
| 20260508184814 | 59 | 177 | 1.0 | 3.0 | 0.00 | 0.05 | 0.05 | 69 | 1011.0 |
| 20260508184311 | 59 | 119 | 2.0 | 3.0 | 0.00 | 0.05 | 0.05 | 70 | 1011.0 |
| 20260508183808 | 58 | 262 | 1.0 | 1.0 | 0.00 | 0.05 | 0.05 | 71 | 1010.7 |
| 20260508183305 | 58 | 194 | 2.0 | 6.0 | 0.00 | 0.05 | 0.05 | 73 | 1011.2 |
| 20260508182800 | 58 | 172 | 3.0 | 4.0 | 0.00 | 0.05 | 0.05 | 70 | 1011.1 |
| 20260508182257 | 58 | 212 | 2.0 | 3.0 | 0.00 | 0.05 | 0.05 | 73 | 1011.3 |
| 20260508181753 | 57 | 182 | 4.0 | 6.0 | 0.00 | 0.05 | 0.05 | 72 | 1011.3 |
| 20260508181250 | 57 | 193 | 6.0 | 6.0 | 0.00 | 0.05 | 0.05 | 73 | 1011.4 |
| 20260508180747 | 57 | 174 | 8.0 | 9.0 | 0.00 | 0.05 | 0.05 | 74 | 1011.5 |
| 20260508180244 | 56 | 169 | 2.0 | 6.0 | 0.00 | 0.05 | 0.05 | 76 | 1011.7 |
| 20260508175740 | 56 | 206 | 4.0 | 4.0 | 0.00 | 0.05 | 0.05 | 76 | 1011.5 |
| 20260508175237 | 56 | 211 | 5.0 | 8.0 | 0.00 | 0.05 | 0.05 | 76 | 1011.8 |
| 20260508174735 | 55 | 158 | 6.0 | 9.0 | 0.00 | 0.05 | 0.05 | 78 | 1012.0 |
| 20260508174232 | 55 | 180 | 8.0 | 9.0 | 0.00 | 0.05 | 0.05 | 79 | 1012.0 |
| 20260508173728 | 55 | 213 | 7.0 | 8.0 | 0.00 | 0.05 | 0.05 | 79 | 1012.2 |
| 20260508173224 | 55 | 207 | 5.0 | 9.0 | 0.00 | 0.05 | 0.05 | 79 | 1012.0 |
| 20260508172721 | 54 | 160 | 3.0 | 4.0 | 0.00 | 0.05 | 0.05 | 81 | 1012.2 |
| 20260508172218 | 55 | 189 | 2.0 | 5.0 | 0.00 | 0.05 | 0.05 | 79 | 1012.3 |
| 20260508171714 | 55 | 174 | 3.0 | 4.0 | 0.00 | 0.05 | 0.05 | 83 | 1012.4 |
| 20260508171211 | 54 | 189 | 3.0 | 4.0 | 0.00 | 0.05 | 0.05 | 83 | 1012.6 |
| 20260508170708 | 53 | 192 | 4.0 | 7.0 | 0.00 | 0.05 | 0.05 | 82 | 1012.5 |
| 20260508170206 | 53 | 174 | 4.0 | 9.0 | 0.00 | 0.05 | 0.05 | 84 | 1012.7 |
| 20260508165702 | 53 | 176 | 5.0 | 8.0 | 0.00 | 0.05 | 0.05 | 85 | 1012.7 |
| 20260508165159 | 53 | 186 | 4.0 | 9.0 | 0.00 | 0.05 | 0.05 | 84 | 1012.8 |
| 20260508164656 | 53 | 184 | 8.0 | 11.0 | 0.02 | 0.05 | 0.05 | 85 | 1012.8 |
| 20260508164152 | 53 | 180 | 4.0 | 7.0 | 0.09 | 0.05 | 0.05 | 84 | 1012.9 |
| 20260508163651 | 53 | 158 | 7.0 | 7.0 | 0.07 | 0.04 | 0.04 | 83 | 1012.9 |
| 20260508163148 | 54 | 179 | 4.0 | 10.0 | 0.00 | 0.03 | 0.03 | 82 | 1013.1 |
| 20260508162643 | 54 | 185 | 4.0 | 10.0 | 0.00 | 0.03 | 0.03 | 81 | 1013.0 |
| 20260508162141 | 54 | 189 | 9.0 | 9.0 | 0.00 | 0.03 | 0.03 | 81 | 1013.1 |
| 20260508161637 | 54 | 194 | 7.0 | 13.0 | 0.00 | 0.03 | 0.03 | 80 | 1012.9 |
| 20260508161135 | 54 | 213 | 10.0 | 13.0 | 0.00 | 0.03 | 0.03 | 80 | 1012.9 |
| 20260508160633 | 54 | 182 | 10.0 | 12.0 | 0.00 | 0.03 | 0.03 | 79 | 1012.8 |
| 20260508160131 | 54 | 208 | 5.0 | 9.0 | 0.00 | 0.03 | 0.03 | 81 | 1012.8 |
| 20260508155627 | 54 | 219 | 8.0 | 8.0 | 0.00 | 0.03 | 0.03 | 81 | 1012.9 |
| 20260508155124 | 54 | 176 | 7.0 | 11.0 | 0.00 | 0.03 | 0.03 | 82 | 1012.9 |
| 20260508154621 | 53 | 189 | 6.0 | 11.0 | 0.00 | 0.03 | 0.03 | 82 | 1012.8 |
| 20260508154118 | 53 | 213 | 2.0 | 8.0 | 0.00 | 0.03 | 0.03 | 83 | 1012.9 |
| 20260508153615 | 53 | 214 | 7.0 | 9.0 | 0.00 | 0.03 | 0.03 | 83 | 1013.0 |
| 20260508153112 | 52 | 196 | 5.0 | 13.0 | 0.00 | 0.03 | 0.03 | 83 | 1013.0 |
| 20260508152609 | 52 | 204 | 9.0 | 12.0 | 0.00 | 0.03 | 0.03 | 84 | 1013.0 |
| 20260508152103 | 52 | 197 | 5.0 | 12.0 | 0.00 | 0.03 | 0.03 | 87 | 1013.0 |
| 20260508151601 | 51 | 218 | 9.0 | 9.0 | 0.00 | 0.03 | 0.03 | 89 | 1012.8 |
| 20260508151058 | 51 | 159 | 3.0 | 7.0 | 0.00 | 0.03 | 0.03 | 90 | 1013.1 |
| 20260508150555 | 51 | 162 | 7.0 | 8.0 | 0.00 | 0.03 | 0.03 | 90 | 1012.9 |
| 20260508150050 | 50 | 192 | 6.0 | 6.0 | 0.02 | 0.03 | 0.03 | 90 | 1013.1 |
| 20260508145547 | 50 | 184 | 3.0 | 4.0 | 0.05 | 0.03 | 0.03 | 90 | 1013.1 |
| 20260508145044 | 51 | 185 | 1.0 | 3.0 | 0.05 | 0.03 | 0.03 | 90 | 1013.3 |
| 20260508144542 | 51 | 252 | 2.0 | 9.0 | 0.07 | 0.02 | 0.02 | 89 | 1013.3 |
| 20260508144039 | 51 | 238 | 4.0 | 7.0 | 0.05 | 0.02 | 0.02 | 89 | 1013.5 |
| 20260508143536 | 51 | 111 | 0.0 | 9.0 | 0.00 | 0.01 | 0.01 | 88 | 1013.5 |
| 20260508143032 | 51 | 249 | 9.0 | 10.0 | 0.00 | 0.01 | 0.01 | 88 | 1013.5 |
| 20260508142530 | 51 | 229 | 5.0 | 12.0 | 0.02 | 0.01 | 0.01 | 87 | 1013.8 |
| 20260508142026 | 51 | 190 | 3.0 | 10.0 | 0.05 | 0.01 | 0.01 | 86 | 1013.7 |
| 20260508141522 | 51 | 210 | 4.0 | 8.0 | 0.02 | 0.01 | 0.01 | 85 | 1013.5 |
| 20260508141021 | 52 | 200 | 9.0 | 11.0 | 0.00 | 0.00 | 0.00 | 83 | 1013.7 |
| 20260508140518 | 52 | 212 | 7.0 | 7.0 | 0.00 | 0.00 | 0.00 | 83 | 1013.5 |
| 20260508140014 | 52 | 192 | 3.0 | 8.0 | 0.00 | 0.00 | 0.00 | 82 | 1013.4 |
| 20260508135509 | 52 | 244 | 4.0 | 10.0 | 0.00 | 0.00 | 0.00 | 82 | 1013.2 |
| 20260508135006 | 52 | 191 | 2.0 | 6.0 | 0.00 | 0.00 | 0.00 | 82 | 1013.2 |
| 20260508134503 | 51 | 208 | 9.0 | 11.0 | 0.00 | 0.00 | 0.00 | 82 | 1013.2 |
| 20260508134000 | 51 | 207 | 3.0 | 6.0 | 0.00 | 0.00 | 0.00 | 82 | 1013.3 |
| 20260508133457 | 51 | 207 | 6.0 | 8.0 | 0.00 | 0.00 | 0.00 | 82 | 1013.5 |
| 20260508132954 | 51 | 208 | 5.0 | 13.0 | 0.00 | 0.00 | 0.00 | 81 | 1013.5 |
| 20260508132452 | 51 | 194 | 7.0 | 11.0 | 0.00 | 0.00 | 0.00 | 81 | 1013.3 |
| 20260508131948 | 51 | 217 | 7.0 | 8.0 | 0.00 | 0.00 | 0.00 | 82 | 1013.3 |
| 20260508131443 | 51 | 193 | 3.0 | 6.0 | 0.00 | 0.00 | 0.00 | 82 | 1013.1 |
| 20260508130940 | 51 | 177 | 5.0 | 8.0 | 0.00 | 0.00 | 0.00 | 82 | 1013.1 |
| 20260508130438 | 51 | 187 | 7.0 | 9.0 | 0.00 | 0.00 | 0.00 | 82 | 1013.3 |
| 20260508125933 | 51 | 206 | 5.0 | 6.0 | 0.00 | 0.00 | 0.00 | 82 | 1013.4 |
| 20260508125429 | 51 | 154 | 3.0 | 9.0 | 0.00 | 0.00 | 0.00 | 83 | 1013.4 |
| 20260508124927 | 50 | 200 | 3.0 | 6.0 | 0.00 | 0.00 | 0.00 | 83 | 1013.2 |
| 20260508124425 | 50 | 192 | 5.0 | 5.0 | 0.00 | 0.00 | 0.00 | 83 | 1013.3 |
| 20260508123922 | 50 | 187 | 3.0 | 6.0 | 0.00 | 0.00 | 0.00 | 83 | 1013.4 |
| 20260508123421 | 50 | 202 | 4.0 | 8.0 | 0.00 | 0.00 | 0.00 | 82 | 1013.4 |
| 20260508122917 | 50 | 211 | 0.0 | 3.0 | 0.00 | 0.00 | 0.00 | 83 | 1013.3 |
| 20260508122414 | 50 | 153 | 1.0 | 4.0 | 0.00 | 0.00 | 0.00 | 83 | 1013.3 |
| 20260508121911 | 50 | 264 | 2.0 | 5.0 | 0.00 | 0.00 | 0.00 | 83 | 1013.2 |
| 20260508121409 | 50 | 238 | 2.0 | 6.0 | 0.00 | 0.00 | 0.00 | 83 | 1013.2 |
| 20260508120907 | 50 | 192 | 2.0 | 5.0 | 0.00 | 0.00 | 0.00 | 83 | 1013.1 |
| 20260508120404 | 49 | 214 | 4.0 | 6.0 | 0.00 | 0.00 | 0.00 | 83 | 1013.3 |
| 20260508115901 | 49 | 149 | 2.0 | 4.0 | 0.00 | 0.00 | 0.00 | 83 | 1013.1 |
| 20260508115359 | 49 | 226 | 2.0 | 4.0 | 0.00 | 0.00 | 0.00 | 83 | 1013.1 |
| 20260508114855 | 49 | 186 | 1.0 | 4.0 | 0.00 | 0.00 | 0.00 | 82 | 1013.2 |
| 20260508114352 | 49 | 166 | 2.0 | 4.0 | 0.00 | 0.00 | 0.00 | 82 | 1013.1 |
| 20260508113849 | 50 | 178 | 2.0 | 4.0 | 0.00 | 0.00 | 0.00 | 82 | 1013.2 |
| 20260508113347 | 50 | 228 | 5.0 | 7.0 | 0.00 | 0.00 | 0.00 | 83 | 1012.9 |
| 20260508112844 | 49 | 237 | 2.0 | 4.0 | 0.00 | 0.00 | 0.00 | 84 | 1012.9 |
| 20260508112341 | 48 | 170 | 2.0 | 5.0 | 0.00 | 0.00 | 0.00 | 86 | 1013.0 |
| 20260508111837 | 47 | 177 | 3.0 | 3.0 | 0.00 | 0.00 | 0.00 | 86 | 1013.0 |
| 20260508111334 | 46 | 181 | 1.0 | 3.0 | 0.00 | 0.00 | 0.00 | 87 | 1012.9 |
| 20260508110831 | 46 | 216 | 0.0 | 4.0 | 0.00 | 0.00 | 0.00 | 87 | 1012.8 |
| 20260508110329 | 46 | 205 | 4.0 | 6.0 | 0.00 | 0.00 | 0.00 | 88 | 1012.6 |
| 20260508105829 | 45 | 103 | 0.0 | 2.0 | 0.00 | 0.00 | 0.00 | 88 | 1012.6 |
| 20260508105326 | 45 | 192 | 4.0 | 4.0 | 0.00 | 0.00 | 0.00 | 88 | 1012.8 |
| 20260508104823 | 45 | 196 | 3.0 | 3.0 | 0.00 | 0.00 | 0.00 | 89 | 1012.7 |
| 20260508104319 | 45 | 221 | 3.0 | 4.0 | 0.00 | 0.00 | 0.00 | 90 | 1012.7 |
| 20260508103817 | 44 | 170 | 4.0 | 4.0 | 0.00 | 0.00 | 0.00 | 89 | 1012.7 |
| 20260508103313 | 44 | 169 | 0.0 | 3.0 | 0.00 | 0.00 | 0.00 | 89 | 1012.4 |
| 20260508102811 | 44 | 185 | 3.0 | 4.0 | 0.00 | 0.00 | 0.00 | 89 | 1012.3 |
| 20260508102309 | 44 | 175 | 2.0 | 4.0 | 0.00 | 0.00 | 0.00 | 88 | 1012.3 |
| 20260508101806 | 45 | 181 | 2.0 | 4.0 | 0.00 | 0.00 | 0.00 | 88 | 1012.5 |
| 20260508101303 | 45 | 181 | 2.0 | 4.0 | 0.00 | 0.00 | 0.00 | 87 | 1012.5 |
| 20260508100801 | 45 | 180 | 3.0 | 4.0 | 0.00 | 0.00 | 0.00 | 87 | 1012.6 |
| 20260508100259 | 46 | 175 | 2.0 | 4.0 | 0.00 | 0.00 | 0.00 | 86 | 1012.5 |
| 20260508095754 | 46 | 181 | 4.0 | 8.0 | 0.00 | 0.00 | 0.00 | 87 | 1012.5 |
| 20260508095252 | 45 | 183 | 4.0 | 4.0 | 0.00 | 0.00 | 0.00 | 88 | 1012.4 |
| 20260508094749 | 45 | 179 | 2.0 | 6.0 | 0.00 | 0.00 | 0.00 | 87 | 1012.7 |
| 20260508094246 | 45 | 183 | 5.0 | 9.0 | 0.00 | 0.00 | 0.00 | 87 | 1012.6 |
| 20260508093743 | 45 | 180 | 5.0 | 7.0 | 0.00 | 0.00 | 0.00 | 88 | 1012.7 |
| 20260508093241 | 45 | 183 | 2.0 | 4.0 | 0.00 | 0.00 | 0.00 | 88 | 1012.7 |
| 20260508092737 | 45 | 198 | 3.0 | 4.0 | 0.00 | 0.00 | 0.00 | 87 | 1012.7 |
| 20260508092236 | 45 | 207 | 4.0 | 5.0 | 0.00 | 0.00 | 0.00 | 87 | 1012.6 |
| 20260508091734 | 46 | 186 | 3.0 | 5.0 | 0.00 | 0.00 | 0.00 | 86 | 1012.6 |
| 20260508091230 | 46 | 207 | 6.0 | 6.0 | 0.00 | 0.00 | 0.00 | 87 | 1012.9 |
| 20260508090728 | 46 | 201 | 5.0 | 5.0 | 0.00 | 0.00 | 0.00 | 87 | 1012.7 |
| 20260508090225 | 45 | 173 | 4.0 | 5.0 | 0.00 | 0.00 | 0.00 | 87 | 1012.7 |
| 20260508085721 | 46 | 196 | 5.0 | 6.0 | 0.00 | 0.00 | 0.00 | 87 | 1012.8 |
| 20260508085219 | 45 | 199 | 4.0 | 6.0 | 0.00 | 0.00 | 0.00 | 87 | 1012.8 |
| 20260508084714 | 45 | 197 | 4.0 | 7.0 | 0.00 | 0.00 | 0.00 | 87 | 1012.8 |
| 20260508084212 | 46 | 189 | 4.0 | 10.0 | 0.00 | 0.00 | 0.00 | 86 | 1012.9 |
| 20260508083709 | 45 | 198 | 6.0 | 10.0 | 0.00 | 0.00 | 0.00 | 87 | 1012.8 |
| 20260508083207 | 45 | 199 | 3.0 | 7.0 | 0.00 | 0.00 | 0.00 | 88 | 1012.9 |
| 20260508082707 | 45 | 193 | 4.0 | 9.0 | 0.00 | 0.00 | 0.00 | 88 | 1012.8 |
| 20260508082205 | 45 | 204 | 7.0 | 10.0 | 0.00 | 0.00 | 0.00 | 89 | 1012.9 |
| 20260508081703 | 44 | 203 | 6.0 | 8.0 | 0.00 | 0.00 | 0.00 | 89 | 1012.7 |
| 20260508081159 | 44 | 180 | 4.0 | 6.0 | 0.00 | 0.00 | 0.00 | 89 | 1012.6 |
| 20260508080656 | 44 | 170 | 4.0 | 7.0 | 0.00 | 0.00 | 0.00 | 90 | 1012.6 |
| 20260508080154 | 44 | 168 | 3.0 | 4.0 | 0.00 | 0.00 | 0.00 | 90 | 1012.9 |
| 20260508075650 | 44 | 201 | 5.0 | 6.0 | 0.00 | 0.00 | 0.00 | 90 | 1012.8 |
| 20260508075148 | 44 | 181 | 4.0 | 6.0 | 0.00 | 0.00 | 0.00 | 90 | 1012.6 |
| 20260508074645 | 44 | 201 | 5.0 | 6.0 | 0.00 | 0.00 | 0.00 | 90 | 1012.5 |
| 20260508074142 | 44 | 195 | 4.0 | 6.0 | 0.00 | 0.00 | 0.00 | 90 | 1012.7 |
| 20260508073639 | 44 | 179 | 4.0 | 5.0 | 0.00 | 0.00 | 0.00 | 91 | 1012.6 |
| 20260508073137 | 44 | 167 | 4.0 | 6.0 | 0.00 | 0.00 | 0.00 | 91 | 1012.6 |
| 20260508072632 | 44 | 198 | 6.0 | 8.0 | 0.00 | 0.00 | 0.00 | 91 | 1012.7 |
| 20260508072130 | 44 | 168 | 4.0 | 4.0 | 0.00 | 0.00 | 0.00 | 91 | 1012.7 |
| 20260508071627 | 44 | 198 | 3.0 | 4.0 | 0.02 | 0.00 | 0.00 | 92 | 1012.8 |
| 20260508071125 | 44 | 168 | 4.0 | 6.0 | 0.02 | 0.00 | 0.00 | 92 | 1012.9 |
| 20260508070623 | 44 | 170 | 4.0 | 5.0 | 0.00 | 0.00 | 0.00 | 92 | 1012.8 |
| 20260508070121 | 44 | 182 | 4.0 | 6.0 | 0.00 | 0.00 | 0.00 | 92 | 1012.6 |
| 20260508065618 | 44 | 188 | 4.0 | 6.0 | 0.00 | 0.00 | 0.00 | 93 | 1012.8 |
| 20260508065116 | 44 | 178 | 4.0 | 4.0 | 0.00 | 0.00 | 0.00 | 93 | 1012.8 |
| 20260508064613 | 44 | 175 | 4.0 | 4.0 | 0.00 | 0.00 | 0.00 | 93 | 1012.8 |
| 20260508064111 | 44 | 153 | 5.0 | 5.0 | 0.00 | 0.00 | 0.00 | 93 | 1012.9 |
| 20260508063608 | 44 | 166 | 3.0 | 4.0 | 0.00 | 0.00 | 0.00 | 93 | 1013.0 |
| 20260508063106 | 44 | 164 | 3.0 | 5.0 | 0.00 | 0.00 | 0.00 | 93 | 1013.0 |
| 20260508062603 | 44 | 168 | 2.0 | 5.0 | 0.00 | 0.00 | 0.00 | 93 | 1013.1 |
| 20260508062100 | 44 | 160 | 4.0 | 5.0 | 0.00 | 0.00 | 0.00 | 93 | 1013.1 |
| 20260508061558 | 44 | 161 | 4.0 | 5.0 | 0.00 | 0.00 | 0.00 | 93 | 1013.1 |
| 20260508061055 | 44 | 166 | 5.0 | 6.0 | 0.00 | 0.00 | 0.00 | 93 | 1013.1 |
| 20260508060551 | 44 | 172 | 4.0 | 6.0 | 0.00 | 0.00 | 0.00 | 93 | 1013.2 |
| 20260508060049 | 45 | 153 | 3.0 | 5.0 | 0.00 | 0.00 | 0.00 | 93 | 1013.2 |
| 20260508055544 | 45 | 170 | 4.0 | 6.0 | 0.00 | 0.00 | 0.00 | 93 | 1013.3 |
| 20260508055041 | 45 | 143 | 4.0 | 5.0 | 0.00 | 0.00 | 0.00 | 93 | 1013.5 |
| 20260508054537 | 45 | 162 | 5.0 | 5.0 | 0.00 | 0.00 | 0.00 | 93 | 1013.3 |
| 20260508054035 | 45 | 161 | 4.0 | 5.0 | 0.00 | 0.00 | 0.00 | 93 | 1013.2 |
| 20260508053531 | 45 | 164 | 4.0 | 7.0 | 0.00 | 0.00 | 0.00 | 93 | 1013.4 |
| 20260508053030 | 45 | 163 | 5.0 | 5.0 | 0.00 | 0.00 | 0.00 | 93 | 1013.3 |
| 20260508052527 | 45 | 169 | 5.0 | 7.0 | 0.00 | 0.00 | 0.00 | 93 | 1013.3 |
| 20260508052024 | 45 | 172 | 3.0 | 6.0 | 0.00 | 0.00 | 0.00 | 93 | 1013.5 |
| 20260508051520 | 45 | 157 | 5.0 | 6.0 | 0.00 | 0.00 | 0.00 | 93 | 1013.4 |
| 20260508051015 | 46 | 158 | 4.0 | 6.0 | 0.00 | 0.00 | 0.00 | 93 | 1013.6 |
| 20260508050512 | 45 | 156 | 3.0 | 5.0 | 0.00 | 0.00 | 0.00 | 93 | 1013.3 |
| 20260508050009 | 45 | 169 | 3.0 | 6.0 | 0.00 | 0.00 | 0.00 | 93 | 1013.3 |
| 20260508045505 | 46 | 157 | 5.0 | 7.0 | 0.00 | 0.00 | 0.00 | 94 | 1013.4 |
| 20260508045003 | 45 | 170 | 4.0 | 6.0 | 0.00 | 0.00 | 0.00 | 94 | 1013.4 |
| 20260508044500 | 45 | 163 | 5.0 | 7.0 | 0.00 | 0.00 | 0.00 | 94 | 1013.4 |
| 20260508043955 | 45 | 138 | 5.0 | 7.0 | 0.00 | 0.00 | 0.00 | 94 | 1013.6 |
| 20260508043453 | 45 | 154 | 5.0 | 5.0 | 0.00 | 0.00 | 0.00 | 94 | 1013.4 |
| 20260508042949 | 45 | 164 | 4.0 | 5.0 | 0.00 | 0.00 | 0.00 | 94 | 1013.4 |
| 20260508042447 | 46 | 154 | 4.0 | 4.0 | 0.00 | 0.00 | 0.00 | 94 | 1013.5 |
| 20260508041944 | 46 | 179 | 4.0 | 5.0 | 0.00 | 0.00 | 0.00 | 94 | 1013.6 |
| 20260508041440 | 46 | 138 | 6.0 | 8.0 | 0.00 | 0.00 | 0.00 | 94 | 1013.5 |
| 20260508040937 | 46 | 184 | 3.0 | 7.0 | 0.00 | 0.00 | 0.00 | 94 | 1013.4 |
| 20260508040434 | 46 | 156 | 4.0 | 7.0 | 0.00 | 0.00 | 0.00 | 94 | 1013.4 |
| 20260508035932 | 46 | 139 | 5.0 | 8.0 | 0.00 | 0.11 | 0.11 | 93 | 1013.6 |
| 20260508035429 | 46 | 159 | 4.0 | 7.0 | 0.00 | 0.11 | 0.11 | 93 | 1013.4 |
| 20260508034925 | 46 | 154 | 6.0 | 7.0 | 0.00 | 0.11 | 0.11 | 93 | 1013.6 |
| 20260508034423 | 46 | 152 | 6.0 | 7.0 | 0.00 | 0.11 | 0.11 | 93 | 1013.6 |
| 20260508033919 | 46 | 145 | 4.0 | 6.0 | 0.00 | 0.11 | 0.11 | 93 | 1013.6 |
| 20260508033418 | 46 | 142 | 4.0 | 6.0 | 0.00 | 0.11 | 0.11 | 93 | 1013.7 |
| 20260508032915 | 46 | 147 | 5.0 | 6.0 | 0.00 | 0.11 | 0.11 | 93 | 1013.7 |
| 20260508032412 | 46 | 143 | 4.0 | 9.0 | 0.00 | 0.11 | 0.11 | 92 | 1013.7 |
| 20260508031909 | 46 | 159 | 5.0 | 6.0 | 0.00 | 0.11 | 0.11 | 92 | 1013.6 |
| 20260508031406 | 46 | 151 | 5.0 | 6.0 | 0.00 | 0.11 | 0.11 | 91 | 1013.8 |
| 20260508030901 | 46 | 142 | 4.0 | 6.0 | 0.00 | 0.11 | 0.11 | 91 | 1013.7 |
| 20260508030359 | 47 | 154 | 6.0 | 6.0 | 0.00 | 0.11 | 0.11 | 90 | 1013.9 |
| 20260508025856 | 47 | 143 | 4.0 | 6.0 | 0.02 | 0.11 | 0.11 | 89 | 1013.9 |
| 20260508025352 | 47 | 146 | 4.0 | 4.0 | 0.02 | 0.11 | 0.11 | 89 | 1014.2 |
| 20260508024849 | 47 | 28 | 3.0 | 6.0 | 0.09 | 0.11 | 0.11 | 88 | 1014.3 |
| 20260508024346 | 47 | 343 | 4.0 | 6.0 | 0.14 | 0.10 | 0.10 | 87 | 1014.5 |
| 20260508023843 | 47 | 292 | 2.0 | 3.0 | 0.17 | 0.09 | 0.09 | 86 | 1014.5 |
| 20260508023340 | 48 | 221 | 2.0 | 6.0 | 0.21 | 0.08 | 0.08 | 84 | 1014.2 |
| 20260508022837 | 48 | 258 | 2.0 | 6.0 | 0.26 | 0.06 | 0.06 | 82 | 1014.4 |
| 20260508022332 | 49 | 290 | 4.0 | 6.0 | 0.17 | 0.04 | 0.04 | 79 | 1014.5 |
| 20260508021830 | 49 | 319 | 2.0 | 4.0 | 0.05 | 0.02 | 0.02 | 76 | 1014.2 |
| 20260508021325 | 50 | 189 | 1.0 | 4.0 | 0.07 | 0.01 | 0.01 | 73 | 1014.0 |
| 20260508020821 | 50 | 33 | 2.0 | 4.0 | 0.02 | 0.00 | 0.00 | 71 | 1013.8 |
| 20260508020320 | 51 | 199 | 5.0 | 9.0 | 0.00 | 0.00 | 0.00 | 67 | 1013.6 |
| 20260508015816 | 51 | 161 | 4.0 | 5.0 | 0.00 | 0.00 | 0.00 | 66 | 1013.1 |
| 20260508015314 | 51 | 170 | 5.0 | 7.0 | 0.00 | 0.00 | 0.00 | 65 | 1013.1 |
| 20260508014811 | 51 | 149 | 4.0 | 5.0 | 0.00 | 0.00 | 0.00 | 65 | 1012.9 |
| 20260508014308 | 51 | 170 | 6.0 | 7.0 | 0.00 | 0.00 | 0.00 | 65 | 1012.9 |
| 20260508013803 | 51 | 138 | 8.0 | 10.0 | 0.00 | 0.00 | 0.00 | 64 | 1013.0 |
| 20260508013259 | 51 | 157 | 4.0 | 6.0 | 0.00 | 0.00 | 0.00 | 64 | 1013.1 |
| 20260508012757 | 51 | 166 | 5.0 | 8.0 | 0.00 | 0.00 | 0.00 | 63 | 1013.0 |
| 20260508012254 | 51 | 156 | 4.0 | 6.0 | 0.00 | 0.00 | 0.00 | 63 | 1013.0 |
| 20260508011752 | 51 | 169 | 7.0 | 8.0 | 0.00 | 0.00 | 0.00 | 63 | 1012.8 |
| 20260508011249 | 51 | 166 | 4.0 | 6.0 | 0.00 | 0.00 | 0.00 | 63 | 1012.9 |
| 20260508010746 | 51 | 177 | 4.0 | 6.0 | 0.00 | 0.00 | 0.00 | 63 | 1013.0 |
| 20260508010244 | 51 | 151 | 7.0 | 8.0 | 0.00 | 0.00 | 0.00 | 62 | 1013.0 |
| 20260508005741 | 51 | 179 | 4.0 | 6.0 | 0.00 | 0.00 | 0.00 | 61 | 1013.1 |
| 20260508005238 | 51 | 185 | 4.0 | 5.0 | 0.00 | 0.00 | 0.00 | 61 | 1013.0 |
| 20260508004733 | 51 | 180 | 5.0 | 9.0 | 0.00 | 0.00 | 0.00 | 60 | 1013.1 |
| 20260508004230 | 52 | 212 | 5.0 | 6.0 | 0.00 | 0.00 | 0.00 | 60 | 1012.9 |
| 20260508003726 | 52 | 194 | 5.0 | 8.0 | 0.00 | 0.00 | 0.00 | 59 | 1013.0 |
| 20260508003224 | 52 | 199 | 7.0 | 11.0 | 0.00 | 0.00 | 0.00 | 58 | 1013.0 |
| 20260508002720 | 53 | 196 | 6.0 | 7.0 | 0.00 | 0.00 | 0.00 | 57 | 1012.9 |
| 20260508002218 | 53 | 192 | 7.0 | 10.0 | 0.00 | 0.00 | 0.00 | 56 | 1012.9 |
| 20260508001713 | 53 | 193 | 4.0 | 7.0 | 0.00 | 0.00 | 0.00 | 56 | 1013.0 |
| 20260508001209 | 53 | 179 | 3.0 | 6.0 | 0.00 | 0.00 | 0.00 | 59 | 1013.2 |
| 20260508000705 | 53 | 168 | 6.0 | 13.0 | 0.00 | 0.00 | 0.00 | 56 | 1013.1 |
| 20260508000204 | 53 | 173 | 4.0 | 7.0 | 0.00 | 0.00 | 0.00 | 56 | 1013.1 |
| 20260507235659 | 53 | 172 | 5.0 | 11.0 | 0.00 | 0.00 | 0.00 | 56 | 1013.0 |
| 20260507235157 | 53 | 208 | 9.0 | 11.0 | 0.00 | 0.00 | 0.00 | 56 | 1013.1 |
| 20260507234653 | 53 | 220 | 6.0 | 15.0 | 0.00 | 0.00 | 0.00 | 55 | 1013.3 |
| 20260507234150 | 53 | 210 | 12.0 | 15.0 | 0.00 | 0.00 | 0.00 | 55 | 1013.2 |
| 20260507233647 | 53 | 218 | 12.0 | 14.0 | 0.00 | 0.00 | 0.00 | 56 | 1013.1 |
| 20260507233145 | 53 | 180 | 5.0 | 16.0 | 0.00 | 0.00 | 0.00 | 58 | 1013.1 |
| 20260507232641 | 53 | 179 | 4.0 | 6.0 | 0.00 | 0.00 | 0.00 | 59 | 1013.2 |
| 20260507232139 | 52 | 164 | 6.0 | 7.0 | 0.00 | 0.00 | 0.00 | 58 | 1013.1 |
| 20260507231635 | 52 | 178 | 5.0 | 7.0 | 0.00 | 0.00 | 0.00 | 59 | 1013.2 |